#timestamp,LO_Frequency,Hit,StdDev 
1512990015.6,286046995.7,N
1512990035.4,286046995.5,N
1512990055.3,286046997.5,N
1512990075.1,286047000.7,N
1512990095.9,286046999.7,N
1512990115.7,286047000.6,N
1512990135.5,286046998.8,N
1512990155.4,286047001.5,N
1512990175.2,286047002.5,N
1512990195.0,286046999.7,N
1512990195.9,286046999.7,N
1512990215.8,286046999.7,N
1512990235.6,286047001.6,N
1512990255.5,286047001.2,N
1512990275.3,286046998.5,N
1512990295.1,286046999.9,N
1512990315.9,286047004.2,N
1512990335.7,286047002.2,N
1512990355.6,286047005.5,N
1512990375.4,286047003.6,N
1512990395.2,286047000.3,N
1512990415.1,286046993.5,N
1512990416.0,286046993.5,N
1512990435.8,286046990.2,Y
1512990455.7,286046992.4,P
1512990475.5,286046990.4,N
1512990495.3,286046988.8,N
1512990515.2,286046992.6,N
1512990535.9,286046994.7,N
1512990555.7,286046991.0,N
1512990575.6,286046987.2,Y
1512990595.4,286046992.9,P
1512990615.3,286046992.6,P
1512990635.1,286046994.4,P
1512990655.8,286046995.7,Y
1512990675.7,286046998.5,P
1512990695.5,286046996.5,N
1512990715.4,286046996.5,N
1512990735.2,286046997.1,N
1512990755.0,286046997.2,N
1512990755.9,286046997.2,N
1512990775.8,286046999.0,N
1512990795.6,286046999.6,N
1512990815.5,286046999.2,N
1512990835.3,286046998.9,N
1512990855.1,286047001.9,N
1512990875.9,286046999.8,N
1512990895.7,286046999.9,N
1512990915.5,286047004.1,N
1512990935.4,286047005.9,N
1512990955.2,286047005.4,N
1512990975.1,286047004.1,N
1512990976.0,286047004.1,N
1512990995.8,286047001.4,N
1512991015.6,286047005.4,N
1512991035.5,286047005.6,N
1512991055.3,286047004.7,N
1512991075.2,286047006.4,N
1512991095.9,286047009.1,N
1512991115.7,286047010.1,N
1512991135.6,286047012.3,N
1512991155.4,286047012.4,N
1512991175.2,286047008.6,N
1512991195.1,286047008.8,N
1512991196.0,286047008.8,N
1512991215.8,286047008.8,N
1512991235.7,286047007.9,N
1512991255.5,286047009.3,N
1512991275.3,286047010.3,N
1512991295.2,286047010.4,N
1512991315.0,286047008.3,N
1512991315.9,286047008.3,N
1512991335.8,286047010.4,N
1512991355.6,286047007.8,N
1512991375.4,286047007.2,N
1512991395.3,286047003.7,N
1512991415.1,286047002.7,N
1512991435.9,286047000.3,N
1512991455.7,286047002.5,N
1512991475.5,286047010.8,Y
1512991495.4,286047015.1,P
1512991515.2,286047029.1,P
1512991535.1,286047033.5,P
1512991536.0,286047033.5,Y
1512991555.8,286047000.2,P
1512991575.6,286046994.0,N
1512991595.5,286046986.9,N
1512991615.3,286046985.0,N
1512991635.1,286046979.0,N
1512991655.9,286046978.4,N
1512991675.7,286046974.8,N
1512991695.6,286046971.1,N
1512991715.4,286046971.9,N
1512991735.2,286046970.7,N
1512991755.1,286046966.1,N
1512991756.0,286046966.1,N
1512991775.8,286046966.3,N
1512991795.7,286046966.4,N
1512991815.5,286046964.7,N
1512991835.3,286046962.9,N
1512991855.2,286046961.4,N
1512991875.0,286046961.7,N
1512991875.9,286046961.7,N
1512991895.8,286046962.5,N
1512991915.6,286046964.0,N
1512991935.4,286046966.0,N
1512991955.3,286046964.6,N
1512991975.1,286046967.2,N
1512991995.9,286046964.6,N
1512992015.7,286046964.9,N
1512992035.5,286046968.7,N
1512992055.4,286046969.9,N
1512992075.2,286046970.2,N
1512992095.0,286046968.1,N
1512992095.9,286046968.1,Y
1512992115.8,286046999.5,P
1512992135.6,286046996.6,N
1512992155.5,286046997.5,N
1512992175.3,286046997.8,N
1512992195.1,286046998.8,N
1512992215.9,286047001.2,N
1512992235.7,286046999.4,N
1512992255.6,286046998.6,N
1512992275.4,286047001.1,N
1512992295.2,286047000.5,N
1512992315.1,286047000.5,N
1512992316.0,286047000.5,N
1512992335.8,286047004.2,N
1512992355.6,286047005.4,N
1512992375.5,286047005.0,N
1512992395.3,286047004.1,N
1512992415.2,286047004.3,N
1512992435.9,286047002.2,N
1512992455.7,286046998.2,N
1512992475.6,286046996.6,N
1512992495.4,286046998.5,N
1512992515.3,286047002.6,N
1512992535.1,286047003.4,N
1512992536.0,286047003.4,N
1512992555.8,286047005.8,N
1512992575.7,286047007.4,N
1512992595.9,286047006.2,N
1512992615.7,286047006.5,N
1512992635.6,286047005.1,N
1512992655.4,286047003.1,N
1512992675.2,286047002.3,N
1512992695.1,286047001.7,N
1512992696.0,286047001.7,N
1512992715.8,286046999.8,N
1512992735.6,286047001.1,N
1512992755.5,286047002.6,N
1512992775.3,286047005.2,N
1512992795.2,286047007.2,N
1512992815.9,286046999.7,N
1512992835.7,286047000.9,N
1512992855.6,286047004.3,N
1512992875.4,286047004.0,N
1512992895.3,286047003.9,N
1512992915.1,286047002.6,N
1512992916.0,286047002.6,N
1512992935.8,286046998.7,N
1512992955.7,286047000.0,N
1512992975.5,286047002.6,N
1512992995.3,286047004.2,N
1512993015.2,286047002.3,N
1512993035.0,286047001.6,N
1512993035.9,286047001.6,N
1512993055.8,286047001.8,N
1512993075.6,286047005.5,N
1512993095.4,286047006.0,N
1512993115.3,286047005.3,N
1512993135.1,286047005.0,N
1512993155.9,286047005.7,N
1512993175.7,286047004.9,N
1512993195.5,286047004.9,N
1512993215.4,286047005.1,N
1512993235.2,286047009.0,Y
1512993255.0,286047005.0,P
1512993255.9,286047005.0,P
1512993275.8,286047006.3,P
1512993295.6,286047004.7,Y
1512993315.5,286046999.8,P
1512993335.3,286047000.2,N
1512993355.1,286046999.9,N
1512993375.9,286046996.6,N
1512993395.7,286046996.5,N
1512993415.6,286046998.8,N
1512993435.4,286046998.2,N
1512993455.2,286047002.0,N
1512993475.1,286046998.1,N
1512993476.0,286046998.1,N
1512993495.8,286046998.8,N
1512993515.6,286046999.8,N
1512993535.5,286046998.8,N
1512993555.3,286046999.0,N
1512993575.2,286046999.2,N
1512993595.9,286046999.8,N
